Weather History for YTEF - September, 2013

Change the Weather History Date:

Monday, September 16, 2013

  Actual Average Record
Temperature  
Mean Temperature 70 °F -  
Max Temperature 84 °F - - ()
Min Temperature 55 °F - - ()
Cooling Degree Days 4    
Growing Degree Days 20 (Base 50)    
Moisture  
Dew Point 33 °F    
Average Humidity 21    
Maximum Humidity 34    
Minimum Humidity 9    
Precipitation  
Precipitation 0.00 in - - ()
Sea Level Pressure  
Sea Level Pressure 29.96 in    
Wind  
Wind Speed 10 mph ()    
Max Wind Speed 18 mph    
Max Gust Speed -    
T = Trace of Precipitation, MM = Missing Value Source: Averaged Metar Reports

Daily Weather History Graph

Daily Weather History Graph

Search for Another Location

Airport or City:

Trip Planner

Search our weather history database for the weather conditions in past years. The results will help you decide how hot, cold, wet, or windy it might be!

Date:

Astronomy

Sep. 16, 2013 Rise Set
Actual Time 5:46 AM AWST 5:45 PM AWST
Civil Twilight 5:24 AM AWST 6:07 PM AWST
Nautical Twilight 4:58 AM AWST 6:33 PM AWST
Astronomical Twilight 4:32 AM AWST 6:59 PM AWST
Moon 2:38 PM AWST (9/16) 2:54 AM AWST (9/16)
Length of Visible Light 12h 43m
Length of Day
11h 58m
Waxing Gibbous, 86% of the Moon is Illuminated
Sep 16
Waxing Gibbous
Sep 19
Full
Sep 27
Last Quarter
Oct 5
New
Oct 12
First Quarter

Hourly Weather History & Observations

Time (AWST) Temp. Dew Point Humidity Pressure Visibility Wind Dir Wind Speed Gust Speed Precip Events Conditions
12:00 AM 65 °F 30 °F 16% 29.94 in - SSE 9.2 mph - -  
12:00 AM 64.4 °F 30.2 °F 28% 29.98 in - SSE 9.2 mph - N/A   Unknown
1:00 AM 59.0 °F 28.4 °F 31% 29.95 in - SE 9.2 mph - N/A   Unknown
2:00 AM 61 °F 29 °F 18% 29.92 in - SSE 10.4 mph - -  
2:00 AM 60.8 °F 28.4 °F 29% 29.95 in - SSE 10.4 mph - N/A   Unknown
3:00 AM 58 °F 28 °F 20% 29.91 in - SE 10.4 mph - -  
3:00 AM 59.0 °F 28.4 °F 31% 29.95 in - SE 10.4 mph - N/A   Unknown
4:00 AM 62.6 °F 28.4 °F 27% 29.95 in - South 17.3 mph - N/A   Unknown
5:00 AM 60.8 °F 30.2 °F 31% 29.98 in - SSE 13.8 mph - N/A   Unknown
6:00 AM 57 °F 29 °F 22% 29.97 in - SE 11.5 mph - -  
6:00 AM 57.2 °F 28.4 °F 33% 30.01 in - SE 11.5 mph - N/A   Unknown
7:00 AM 60.8 °F 32.0 °F 34% 30.04 in - SE 12.7 mph - N/A   Unknown
8:00 AM 67 °F 36 °F 21% 30.01 in - SE 18.4 mph - -  
8:00 AM 68.0 °F 37.4 °F 33% 30.04 in - SE 18.4 mph - N/A   Unknown
9:00 AM 72 °F 38 °F 19% 30.02 in - ESE 18.4 mph - -  
9:00 AM 71.6 °F 39.2 °F 31% 30.04 in - ESE 18.4 mph - N/A   Unknown
10:00 AM 77.0 °F 39.2 °F 26% 30.04 in - SE 17.3 mph - N/A   Unknown
11:00 AM 77 °F 35 °F 13% 29.98 in - ESE 15.0 mph - -  
11:00 AM 77.0 °F 35.6 °F 22% 30.01 in - ESE 15.0 mph - N/A   Unknown
12:00 PM 81 °F 36 °F 11% 29.96 in - SE 12.7 mph - -  
12:00 PM 80.6 °F 35.6 °F 20% 29.98 in - SE 12.7 mph - N/A   Unknown
1:00 PM 82.4 °F 35.6 °F 19% 29.95 in - East 13.8 mph - N/A   Unknown
2:00 PM 82 °F 33 °F 9% 29.89 in - East 10.4 mph - -  
2:00 PM 82.4 °F 32.0 °F 16% 29.92 in - East 10.4 mph - N/A   Unknown
3:00 PM 83 °F 34 °F 9% 29.88 in - ESE 5.8 mph - -  
3:00 PM 82.4 °F 33.8 °F 17% 29.92 in - ESE 5.8 mph - N/A   Unknown
4:00 PM 82.4 °F 33.8 °F 17% 29.92 in - ENE 8.1 mph - N/A   Unknown
5:00 PM 82 °F 33 °F 9% 29.88 in - East 5.8 mph - -  
5:00 PM 82.4 °F 33.8 °F 17% 29.92 in - East 5.8 mph - N/A   Unknown
6:00 PM 79 °F 33 °F 10% 29.89 in - South 5.8 mph - -  
6:00 PM 78.8 °F 33.8 °F 20% 29.92 in - South 5.8 mph - N/A   Unknown
7:00 PM 73.4 °F 35.6 °F 25% 29.95 in - SSE 3.5 mph - N/A   Unknown
8:00 PM 76 °F 32 °F 11% 29.93 in - SW 4.6 mph - -  
8:00 PM 75.2 °F 32.0 °F 21% 29.95 in - SW 4.6 mph - N/A   Unknown
9:00 PM 73 °F 35 °F 15% 29.94 in - South 3.5 mph - -  
9:00 PM 73.4 °F 35.6 °F 25% 29.98 in - South 3.5 mph - N/A   Unknown
10:00 PM 75.2 °F 33.8 °F 22% 29.95 in - SSW 6.9 mph - N/A   Unknown
11:00 PM 67 °F 34 °F 18% 29.92 in - Calm Calm - -  
11:00 PM 68.0 °F 33.8 °F 28% 29.95 in - Calm Calm - N/A   Unknown